Location: Unspecified
(0.0000°N, 0.0000°E)
Time: 23:07:28
(UTC+00:00)

Vanguard 2 - Pass Details

Date: 08 October 2020
Orbit: 554 x 2937 km, 32.9° (Epoch: 28 October)

Event Time Altitude Azimuth Distance (km) Brightness Sun altitude
Rises 00:36:30 0° 259° (W) 6,789 - -76.4°
Reaches altitude 10° 00:41:54 10° 267° (W) 5,733 - -75.2°
Maximum altitude 00:56:23 33° 324° (NW) 3,623 - -71.8°
Drops below altitude 10° 01:07:26 10° 24° (NNE) 4,328 - -69.2°
Sets 01:10:53 0° 34° (NE) 4,991 - -68.4°
